Weather in Kungrad

Uzbekistan     43°02′44″N   58°50′51″E
temp.,
°C
wind,
m/s
gust,
m/s
humid.,
%
clouds,
%
prec.,
mm/h
press.,
hPa
HPBL,
m
7 march, sun
sun723:00+5e45590 0.0 102195
02:00+4se45570 0.0 102074
05:00+4sse45480 0.0 101976
08:00+3s57600 0.0 1018122
11:00+9s7105620 0.0 1017806
14:00+12ssw8103898 0.0 10151217
17:00+13ssw783893 0.0 10131334
20:00+11ssw3649100 0.0 1013156
8 march, mon
mon823:00+9nw81064100 0.0 1015606
02:00+4nnw10136799 0.0 1017662
05:00+1n8116178 0.0 1020655
08:00−1n59630 0.0 1023688
11:00+3nne56400 0.0 1025881
14:00+6ene44280 0.0 10241044
17:00+7ene43270 0.0 10221018
20:00+4ene58380 0.0 1021358
9 march, tue
tue923:00+3ene6104826 0.0 1020366
02:00+1ene484713 0.0 1018222
05:000ene475122 0.0 1016151
08:000ene476079 0.0 1015169
11:00+5e455187 0.0 1013374
14:00+11se23400 0.0 1011779
17:00+13w453717 0.0 10091393
20:00+7n796667 0.0 1010298
10 march, wed
wed1023:00+5nnw688159 0.0 1012463
02:00+3nnw789499 0.2 1014472
05:00+2nw687893 0.2 1016687
08:00+1nw487754 0.0 1019543
11:00+5wnw565427 0.0 1022927
14:00+8wnw67390 0.0 10221403
17:00+8wnw663715 0.0 10211460
20:00+6nnw2345100 0.0 1021118
11 march, thu
thu1123:00+4ne125466 0.0 102222
02:00+3ese345656 0.0 102046
05:00+2ese345748 0.0 101852
08:00+2e345995 0.0 101884
11:00+7ese234197 0.0 1018398
14:00+9ne4339100 0.0 10161446
17:00+7nne7759100 0.3 1016916
20:00+3nne111494100 1.5 1016707